• In Russia
  • List of Countries
  • For 7 days
  • Water Temperature
  • Weather Map
  • Weather Widgets
  • user-avatar
    Login

    Hourly Weather Kaprun

    Today, 17 August, Saturday

    Time Temperature Precipitation Wind Pressure Humidity
    00:00 +5°C° 0 mm 1 mps 598 mmHg 87%
    01:00 +5°C° 0 mm 2 mps 598 mmHg 86%
    02:00 +5°C° 0 mm 1 mps 598 mmHg 85%
    03:00 +5°C° 0 mm 1 mps 598 mmHg 85%
    04:00 +5°C° 0 mm 1 mps 597 mmHg 84%
    05:00 +7°C° 0 mm 1 mps 598 mmHg 78%
    06:00 +9°C° 0 mm 1 mps 599 mmHg 72%
    07:00 +11°C° 0 mm 1 mps 600 mmHg 65%
    08:00 +13°C° 0 mm 1 mps 601 mmHg 57%
    09:00 +15°C° 0 mm 1 mps 602 mmHg 48%
    10:00 +18°C° 0 mm 1 mps 603 mmHg 40%
    11:00 +19°C° 0 mm 1 mps 603 mmHg 39%
    12:00 +19°C° 0 mm 1 mps 603 mmHg 37%
    13:00 +19°C° 0 mm 2 mps 603 mmHg 36%
    14:00 +19°C° 0 mm 2 mps 603 mmHg 40%
    15:00 +18°C° 0 mm 2 mps 602 mmHg 43%
    16:00 +18°C° 0 mm 2 mps 602 mmHg 47%
    17:00 +16°C° 0 mm 1 mps 601 mmHg 59%
    18:00 +13°C° 0 mm 1 mps 600 mmHg 72%
    19:00 +11°C° 0 mm 1 mps 600 mmHg 85%
    20:00 +11°C° 0 mm 1 mps 600 mmHg 87%
    21:00 +9°C° 0 mm 0 mps 599 mmHg 88%
    22:00 +8°C° 0 mm 0 mps 599 mmHg 90%
    23:00 +9°C° 0 mm 1 mps 599 mmHg 89%

    Tomorrow, 18 August, Sunday

    Time Temperature Precipitation Wind Pressure Humidity
    00:00 +9°C° 0 mm 1 mps 599 mmHg 88%
    01:00 +9°C° 0 mm 1 mps 599 mmHg 87%
    02:00 +9°C° 0 mm 1 mps 599 mmHg 86%
    03:00 +9°C° 0 mm 1 mps 598 mmHg 85%
    04:00 +9°C° 0 mm 1 mps 598 mmHg 83%
    05:00 +10°C° 0 mm 1 mps 599 mmHg 80%
    06:00 +12°C° 0 mm 1 mps 599 mmHg 76%
    07:00 +13°C° 0 mm 1 mps 600 mmHg 72%
    08:00 +15°C° 0 mm 1 mps 601 mmHg 65%
    09:00 +18°C° 0 mm 1 mps 602 mmHg 58%
    10:00 +20°C° 0 mm 1 mps 603 mmHg 51%
    11:00 +20°C° 0 mm 2 mps 603 mmHg 48%
    12:00 +21°C° 0 mm 2 mps 603 mmHg 45%
    13:00 +23°C° 0 mm 2 mps 603 mmHg 42%
    14:00 +21°C° 0 mm 2 mps 603 mmHg 47%
    15:00 +20°C° 0 mm 2 mps 602 mmHg 51%
    16:00 +19°C° 0 mm 2 mps 602 mmHg 56%
    17:00 +17°C° 0.1 mm 2 mps 601 mmHg 66%
    18:00 +15°C° 0.1 mm 1 mps 600 mmHg 75%
    19:00 +14°C° 0.1 mm 1 mps 600 mmHg 84%
    20:00 +13°C° 0.1 mm 2 mps 600 mmHg 86%
    21:00 +12°C° 0.1 mm 2 mps 600 mmHg 88%
    22:00 +12°C° 0.1 mm 2 mps 600 mmHg 90%
    23:00 +12°C° 0 mm 2 mps 599 mmHg 91%

    Day after tomorrow, 19 August, Monday

    Time Temperature Precipitation Wind Pressure Humidity
    00:00 +10°C° 0 mm 2 mps 599 mmHg 92%
    01:00 +10°C° 0 mm 2 mps 599 mmHg 93%
    02:00 +11°C° 0 mm 1 mps 599 mmHg 94%
    03:00 +11°C° 0 mm 1 mps 600 mmHg 94%
    04:00 +9°C° 0 mm 0 mps 600 mmHg 95%
    05:00 +10°C° 0.1 mm 0 mps 600 mmHg 93%
    06:00 +10°C° 0.1 mm 0 mps 600 mmHg 92%
    07:00 +11°C° 0.1 mm 0 mps 601 mmHg 90%
    08:00 +11°C° 0.3 mm 0 mps 601 mmHg 89%
    09:00 +13°C° 0.3 mm 1 mps 602 mmHg 88%
    10:00 +13°C° 0.3 mm 1 mps 602 mmHg 86%
    11:00 +14°C° 0.5 mm 1 mps 602 mmHg 85%
    12:00 +14°C° 0.5 mm 1 mps 603 mmHg 84%
    13:00 +15°C° 0.5 mm 1 mps 603 mmHg 82%
    14:00 +15°C° 0.6 mm 1 mps 603 mmHg 80%
    15:00 +15°C° 0.6 mm 1 mps 603 mmHg 78%
    16:00 +16°C° 0.6 mm 1 mps 603 mmHg 77%
    17:00 +14°C° 1.2 mm 1 mps 602 mmHg 83%
    18:00 +13°C° 1.2 mm 1 mps 602 mmHg 89%
    19:00 +12°C° 1.2 mm 1 mps 602 mmHg 95%
    20:00 +11°C° 2.3 mm 1 mps 601 mmHg 95%
    21:00 +9°C° 2.3 mm 2 mps 601 mmHg 95%
    22:00 +8°C° 2.3 mm 2 mps 601 mmHg 95%
    23:00 +8°C° 0.5 mm 2 mps 601 mmHg 94%

    20 August, Tuesday

    Time Temperature Precipitation Wind Pressure Humidity
    00:00 +8°C° 0.5 mm 2 mps 601 mmHg 93%
    01:00 +8°C° 0.5 mm 2 mps 601 mmHg 92%
    02:00 +9°C° 0.1 mm 1 mps 601 mmHg 92%
    03:00 +10°C° 0.1 mm 1 mps 601 mmHg 92%
    04:00 +10°C° 0.1 mm 1 mps 601 mmHg 92%
    05:00 +10°C° 0 mm 1 mps 601 mmHg 92%
    06:00 +11°C° 0 mm 1 mps 601 mmHg 92%
    07:00 +11°C° 0 mm 1 mps 601 mmHg 91%
    08:00 +12°C° 0.1 mm 1 mps 602 mmHg 88%
    09:00 +13°C° 0.1 mm 1 mps 602 mmHg 86%
    10:00 +13°C° 0.1 mm 1 mps 602 mmHg 83%
    11:00 +15°C° 0.4 mm 2 mps 602 mmHg 79%
    12:00 +16°C° 0.4 mm 2 mps 603 mmHg 74%
    13:00 +18°C° 0.4 mm 2 mps 603 mmHg 69%
    14:00 +17°C° 0.5 mm 2 mps 603 mmHg 72%
    15:00 +17°C° 0.5 mm 2 mps 603 mmHg 75%
    16:00 +16°C° 0.5 mm 3 mps 602 mmHg 78%
    17:00 +14°C° 1.6 mm 2 mps 602 mmHg 84%
    18:00 +12°C° 1.6 mm 2 mps 602 mmHg 91%
    19:00 +9°C° 1.6 mm 2 mps 601 mmHg 97%
    20:00 +8°C° 1.9 mm 2 mps 602 mmHg 97%
    21:00 +8°C° 1.9 mm 2 mps 602 mmHg 97%
    22:00 +7°C° 1.9 mm 2 mps 603 mmHg 97%
    23:00 +7°C° 0.5 mm 2 mps 602 mmHg 97%

    21 August, Wednesday

    Time Temperature Precipitation Wind Pressure Humidity
    00:00 +7°C° 0.5 mm 2 mps 602 mmHg 98%
    01:00 +7°C° 0.5 mm 2 mps 602 mmHg 98%
    02:00 +6°C° 1.8 mm 2 mps 602 mmHg 98%
    03:00 +6°C° 1.8 mm 2 mps 602 mmHg 98%
    04:00 +6°C° 1.8 mm 2 mps 602 mmHg 98%
    05:00 +6°C° 0.9 mm 2 mps 602 mmHg 97%
    06:00 +6°C° 0.9 mm 2 mps 602 mmHg 97%
    07:00 +7°C° 0.9 mm 1 mps 603 mmHg 97%
    08:00 +8°C° 0.1 mm 1 mps 603 mmHg 95%
    09:00 +8°C° 0.1 mm 1 mps 603 mmHg 92%
    10:00 +9°C° 0.1 mm 1 mps 604 mmHg 90%
    11:00 +10°C° 0.1 mm 1 mps 604 mmHg 86%
    12:00 +11°C° 0.1 mm 1 mps 604 mmHg 83%
    13:00 +12°C° 0.1 mm 1 mps 605 mmHg 79%
    14:00 +12°C° 0.1 mm 1 mps 604 mmHg 79%
    15:00 +12°C° 0.1 mm 1 mps 604 mmHg 79%
    16:00 +12°C° 0.1 mm 1 mps 604 mmHg 79%
    17:00 +11°C° 0.1 mm 1 mps 604 mmHg 83%
    18:00 +10°C° 0.1 mm 1 mps 604 mmHg 87%
    19:00 +10°C° 0.1 mm 1 mps 604 mmHg 91%
    20:00 +9°C° 0 mm 1 mps 603 mmHg 93%
    21:00 +8°C° 0 mm 1 mps 603 mmHg 94%
    22:00 +7°C° 0 mm 1 mps 603 mmHg 96%
    23:00 +7°C° 0 mm 1 mps 603 mmHg 95%

    22 August, Thursday

    Time Temperature Precipitation Wind Pressure Humidity
    00:00 +7°C° 0 mm 1 mps 603 mmHg 95%
    01:00 +7°C° 0 mm 1 mps 602 mmHg 94%
    02:00 +6°C° 0 mm 1 mps 602 mmHg 94%
    03:00 +6°C° 0 mm 1 mps 602 mmHg 94%
    04:00 +5°C° 0 mm 0 mps 602 mmHg 94%
    05:00 +6°C° 0 mm 0 mps 602 mmHg 90%
    06:00 +8°C° 0 mm 0 mps 603 mmHg 87%
    07:00 +9°C° 0 mm 0 mps 604 mmHg 83%
    08:00 +11°C° 0 mm 0 mps 605 mmHg 75%
    09:00 +14°C° 0 mm 1 mps 605 mmHg 67%
    10:00 +16°C° 0 mm 1 mps 606 mmHg 59%
    11:00 +16°C° 0.3 mm 1 mps 606 mmHg 60%
    12:00 +16°C° 0.3 mm 1 mps 606 mmHg 61%
    13:00 +17°C° 0.3 mm 2 mps 606 mmHg 63%
    14:00 +16°C° 1.1 mm 1 mps 606 mmHg 67%
    15:00 +16°C° 1.1 mm 1 mps 605 mmHg 72%
    16:00 +15°C° 1.1 mm 1 mps 605 mmHg 77%
    17:00 +14°C° 0.7 mm 1 mps 604 mmHg 82%
    18:00 +12°C° 0.7 mm 1 mps 604 mmHg 88%
    19:00 +10°C° 0.7 mm 0 mps 603 mmHg 93%
    20:00 +9°C° 0.2 mm 0 mps 603 mmHg 92%
    21:00 +10°C° 0.2 mm 1 mps 603 mmHg 91%
    22:00 +9°C° 0.2 mm 1 mps 603 mmHg 91%
    23:00 +9°C° 0 mm 1 mps 603 mmHg 91%
    Show more